Regional Weather Roundup
Issued by NWS Northern Indiana

Home | Current Version | Previous Version | Graphics & Text | Print | Product List | Glossary On
Versions: 1 2 3 4 5 6 7 8 9 10 11 12 13 14 15 16 17 18 19 20 21 22 23 24 25 26 27 28 29 30 31 32 33 34 35 36 37 38 39 40 41 42 43 44 45 46 47 48 49 50
000
ASUS43 KIWX 020300
RWRIWX

KIWX WEATHER ROUNDUP
NATIONAL WEATHER SERVICE NORTHERN INDIANA
1100 PM EDT SAT AUG 01 2015

NOTE: "FAIR" INDICATES FEW OR NO CLOUDS BELOW 12,000 FEET WITH NO
SIGNIFICANT WEATHER AND/OR OBSTRUCTIONS TO VISIBILITY.

* THESE STATIONS ARE NOT UNDER NWS QUALITY CONTROL. THEY ALSO MAY NOT
  REPORT WEATHER SUCH AS PRECIPITATION OR FOG.

INZ001>027-020400-
NORTHERN INDIANA

CITY           SKY/WX    TMP DP  RH WIND       PRES   REMARKS
GARY*          MOCLDY    77  63  61 W7        29.92
KNOX*          MOCLDY    70  59  68 SW5       29.93R
SOUTH BEND     PTCLDY    75  61  61 SW10      29.92R
GOSHEN         CLEAR     69  62  78 SW8       29.92R
MONTICELLO*    PTCLDY    71  65  83 SW6       29.95S
WARSAW*        PTCLDY    72  61  68 SW8       29.93S
ANGOLA*        MOCLDY    66  61  82 CALM      29.93S
FORT WAYNE     MOCLDY    71  60  68 SW12      29.95S

$$
INZ028>050-020400-
CENTRAL INDIANA

CITY           SKY/WX    TMP DP  RH WIND       PRES   REMARKS
LAFAYETTE      PTCLDY    69  64  84 W3        29.96S
KOKOMO*        MOCLDY    70  59  68 W7        29.97S
MUNCIE*        MOCLDY    71  57  61 SW6       29.98S
INDIANAPOLIS   PTCLDY    72  59  63 W6        29.97F

$$
MIZ043>046-050>051-056>058-064>065-071>073-077>080-020400-
SOUTHWEST LOWER MICHIGAN

CITY           SKY/WX    TMP DP  RH WIND       PRES   REMARKS
BATTLE CREEK   PTCLDY    69  60  73 CALM      29.92S
BENTON HARBOR  MOCLDY    67  62  84 CALM      29.90R
COLDWATER*     MOCLDY    66  60  82 CALM      29.93S
HILLSDALE*     PTCLDY    67  60  76 CALM      29.94S
HOLLAND        CLEAR     67  58  72 CALM      29.90S
GRAND RAPIDS   PTCLDY    68  54  60 SW6       29.90S
KALAMAZOO      MOCLDY    68  59  73 S3        29.92R
STURGIS*       MOCLDY    68  63  83 CALM      29.91F
THREE RIVERS*  MOCLDY    68  63  82 CALM      29.92R

$$
OHZ001>008-015>018-024>025-020400-
NORTHWEST OHIO

CITY           SKY/WX    TMP DP  RH WIND       PRES   REMARKS
DEFIANCE       MOCLDY    70  59  68 CALM      29.93S
FINDLAY        CLEAR     70  57  63 S5        29.93S
TOLEDO EXPRESS PTCLDY    71  55  56 SW5       29.92S
TOLEDO METCALF MOCLDY    72  55  55 SW3       29.93R
LIMA           CLEAR     69  57  65 S6        29.96S

$$
AND FOR LAKE MICHIGAN COASTAL AND OPEN LAKE BUOY OBSERVATIONS

STATION/POSITION TEMP    WIND        PRES    VSBY  WAVE
                 AIR SEA DIR/SP/G                  HT/PER
                 (F)     (DEG/KT/KT) (MB)    (MI)  (FT/S)
CALUMET HARBOR    80     230/  6/ 11   N/A
MICHIGAN CITY     78     190/ 14/ 18   N/A
BURNS HARBOR      79     230/ 12/ 15 1013.2R
SAINT JOSEPH      76     170/  3/  4 1012.5F
4 MI NW BRIDGMAN  76 74  260/  8/ 10   N/A           1/ 4
MICHIGAN CITY     78 74  240/ 12/ 16   N/A           2

$$
&&



USA.gov is the U.S. government's official web portal to all federal, state and local government web resources and services.